When you browse on this site, cookies collect data to enhance your experience and personalize the content and advertising you see.
Visit our Privacy Policy to learn more. By continuing to use the site, you agree to this use of cookies and data.
  • In Hungary
  • List of Countries
  • For 7 days
  • Water Temperature
  • Satellite Maps
  • Weather Map
  • News
  • Weather Widgets
  • user-avatar
    Login

    Hourly Weather Rakszawa

    Today, 13 December, Thursday

    Time Temperature Precipitation Wind Pressure Humidity
    00:00 -2°C° 0.2 mm 3 mps 746 mmHg 92%
    01:00 -1°C° 0 mm 2 mps 746 mmHg 92%
    02:00 -1°C° 0.1 mm 3 mps 745 mmHg 93%
    03:00 -1°C° 0.1 mm 3 mps 745 mmHg 93%
    04:00 -1°C° 0.1 mm 3 mps 745 mmHg 93%
    05:00 -1°C° 0.1 mm 3 mps 745 mmHg 93%
    06:00 -1°C° 0.1 mm 3 mps 745 mmHg 93%
    07:00 -1°C° 0.1 mm 3 mps 745 mmHg 93%
    08:00 -1°C° 0.1 mm 3 mps 745 mmHg 91%
    09:00 -1°C° 0.1 mm 3 mps 745 mmHg 89%
    10:00 0°C° 0.1 mm 3 mps 745 mmHg 87%
    11:00 0°C° 0.1 mm 3 mps 745 mmHg 86%
    12:00 0°C° 0.1 mm 3 mps 745 mmHg 84%
    13:00 0°C° 0.1 mm 3 mps 745 mmHg 83%
    14:00 -1°C° 0.1 mm 3 mps 745 mmHg 84%
    15:00 -1°C° 0.1 mm 3 mps 746 mmHg 85%
    16:00 -1°C° 0.1 mm 2 mps 746 mmHg 87%
    17:00 -2°C° 0 mm 2 mps 746 mmHg 88%
    18:00 -2°C° 0 mm 2 mps 746 mmHg 89%
    19:00 -2°C° 0 mm 2 mps 746 mmHg 91%
    20:00 -3°C° 0 mm 2 mps 746 mmHg 91%
    21:00 -3°C° 0 mm 2 mps 746 mmHg 91%
    22:00 -3°C° 0 mm 2 mps 746 mmHg 91%
    23:00 -3°C° 0 mm 2 mps 746 mmHg 91%

    Tomorrow, 14 December, Friday

    Time Temperature Precipitation Wind Pressure Humidity
    00:00 -2°C° 0 mm 2 mps 747 mmHg 90%
    01:00 -2°C° 0 mm 2 mps 747 mmHg 89%
    02:00 -2°C° 0 mm 2 mps 747 mmHg 89%
    03:00 -2°C° 0 mm 2 mps 747 mmHg 89%
    04:00 -3°C° 0 mm 2 mps 747 mmHg 88%
    05:00 -3°C° 0 mm 2 mps 747 mmHg 89%
    06:00 -3°C° 0 mm 2 mps 747 mmHg 89%
    07:00 -3°C° 0 mm 2 mps 747 mmHg 90%
    08:00 -2°C° 0 mm 2 mps 748 mmHg 88%
    09:00 -2°C° 0 mm 2 mps 748 mmHg 87%
    10:00 -2°C° 0 mm 2 mps 748 mmHg 85%
    11:00 -1°C° 0 mm 2 mps 748 mmHg 85%
    12:00 -1°C° 0 mm 2 mps 748 mmHg 84%
    13:00 -1°C° 0 mm 2 mps 748 mmHg 83%
    14:00 -1°C° 0 mm 2 mps 749 mmHg 85%
    15:00 -1°C° 0 mm 2 mps 749 mmHg 88%
    16:00 +1°C° 0 mm 1 mps 749 mmHg 90%
    17:00 -2°C° 0 mm 2 mps 749 mmHg 91%
    18:00 -2°C° 0 mm 2 mps 749 mmHg 92%
    19:00 -2°C° 0 mm 2 mps 749 mmHg 93%
    20:00 -2°C° 0 mm 2 mps 750 mmHg 92%
    21:00 -2°C° 0 mm 2 mps 750 mmHg 92%
    22:00 -2°C° 0 mm 2 mps 750 mmHg 91%
    23:00 -2°C° 0 mm 2 mps 750 mmHg 89%

    Day after tomorrow, 15 December, Saturday

    Time Temperature Precipitation Wind Pressure Humidity
    00:00 -2°C° 0 mm 2 mps 750 mmHg 88%
    01:00 -2°C° 0 mm 2 mps 750 mmHg 86%
    02:00 -2°C° 0 mm 2 mps 750 mmHg 86%
    03:00 -3°C° 0 mm 2 mps 750 mmHg 86%
    04:00 -4°C° 0 mm 3 mps 750 mmHg 86%
    05:00 -4°C° 0 mm 3 mps 750 mmHg 87%
    06:00 -4°C° 0 mm 3 mps 750 mmHg 88%
    07:00 -5°C° 0 mm 3 mps 750 mmHg 89%
    08:00 -4°C° 0 mm 4 mps 750 mmHg 87%
    09:00 -4°C° 0 mm 4 mps 750 mmHg 84%
    10:00 -3°C° 0 mm 4 mps 750 mmHg 82%
    11:00 -4°C° 0 mm 5 mps 750 mmHg 80%
    12:00 -4°C° 0 mm 5 mps 750 mmHg 78%
    13:00 -4°C° 0 mm 5 mps 749 mmHg 76%
    14:00 -4°C° 0 mm 5 mps 749 mmHg 77%
    15:00 -4°C° 0 mm 5 mps 749 mmHg 78%
    16:00 -4°C° 0 mm 5 mps 749 mmHg 78%
    17:00 -4°C° 0 mm 5 mps 749 mmHg 79%
    18:00 -4°C° 0 mm 5 mps 749 mmHg 80%
    19:00 -4°C° 0 mm 5 mps 749 mmHg 81%
    20:00 -4°C° 0.1 mm 5 mps 749 mmHg 82%
    21:00 -4°C° 0.1 mm 5 mps 748 mmHg 83%
    22:00 -4°C° 0.1 mm 5 mps 748 mmHg 84%
    23:00 -4°C° 0.3 mm 5 mps 748 mmHg 85%

    16 December, Sunday

    Time Temperature Precipitation Wind Pressure Humidity
    00:00 -5°C° 0.3 mm 6 mps 747 mmHg 86%
    01:00 -5°C° 0.3 mm 6 mps 747 mmHg 87%
    02:00 -5°C° 0.3 mm 5 mps 746 mmHg 88%
    03:00 -5°C° 0.3 mm 5 mps 746 mmHg 88%
    04:00 -5°C° 0.3 mm 5 mps 746 mmHg 89%
    05:00 -5°C° 0.2 mm 5 mps 745 mmHg 89%
    06:00 -4°C° 0.2 mm 4 mps 745 mmHg 90%
    07:00 -4°C° 0.2 mm 4 mps 745 mmHg 90%
    08:00 -3°C° 0.1 mm 4 mps 745 mmHg 90%
    09:00 -2°C° 0.1 mm 3 mps 745 mmHg 89%
    10:00 -2°C° 0.1 mm 3 mps 745 mmHg 89%
    11:00 -2°C° 0 mm 2 mps 744 mmHg 89%
    12:00 -1°C° 0 mm 2 mps 744 mmHg 88%
    13:00 +1°C° 0 mm 1 mps 744 mmHg 88%
    14:00 +1°C° 0 mm 1 mps 744 mmHg 90%
    15:00 0°C° 0 mm 1 mps 744 mmHg 91%
    16:00 -1°C° 0 mm 0 mps 744 mmHg 93%
    17:00 -1°C° 0.1 mm 0 mps 744 mmHg 93%
    18:00 0°C° 0.1 mm 1 mps 744 mmHg 93%
    19:00 0°C° 0.1 mm 1 mps 745 mmHg 93%
    20:00 -1°C° 0 mm 1 mps 745 mmHg 93%
    21:00 -1°C° 0 mm 1 mps 745 mmHg 92%
    22:00 -1°C° 0 mm 1 mps 745 mmHg 92%
    23:00 -1°C° 0 mm 1 mps 745 mmHg 92%

    17 December, Monday

    Time Temperature Precipitation Wind Pressure Humidity
    00:00 -2°C° 0 mm 1 mps 746 mmHg 92%
    01:00 -2°C° 0 mm 1 mps 746 mmHg 92%
    02:00 -2°C° 0 mm 1 mps 746 mmHg 91%
    03:00 -2°C° 0 mm 1 mps 746 mmHg 91%
    04:00 -2°C° 0 mm 1 mps 746 mmHg 91%
    05:00 -2°C° 0 mm 1 mps 746 mmHg 91%
    06:00 -2°C° 0 mm 1 mps 746 mmHg 91%
    07:00 -3°C° 0 mm 1 mps 746 mmHg 91%
    08:00 -2°C° 0 mm 1 mps 746 mmHg 89%
    09:00 -1°C° 0 mm 1 mps 747 mmHg 87%
    10:00 0°C° 0 mm 1 mps 747 mmHg 85%
    11:00 -1°C° 0 mm 0 mps 747 mmHg 84%
    12:00 -1°C° 0 mm 0 mps 747 mmHg 83%
    13:00 0°C° 0 mm 0 mps 747 mmHg 81%
    14:00 -1°C° 0 mm 0 mps 747 mmHg 84%
    15:00 -1°C° 0 mm 0 mps 747 mmHg 86%
    16:00 -2°C° 0 mm 0 mps 747 mmHg 89%
    17:00 -2°C° 0 mm 0 mps 747 mmHg 89%
    18:00 -2°C° 0 mm 0 mps 748 mmHg 89%
    19:00 -2°C° 0 mm 0 mps 748 mmHg 90%
    20:00 -2°C° 0 mm 0 mps 748 mmHg 90%
    21:00 -2°C° 0 mm 0 mps 748 mmHg 90%
    22:00 -2°C° 0 mm 0 mps 748 mmHg 90%
    23:00 -2°C° 0 mm 0 mps 748 mmHg 89%

    18 December, Tuesday

    Time Temperature Precipitation Wind Pressure Humidity
    00:00 -1°C° 0 mm 1 mps 748 mmHg 89%
    01:00 -1°C° 0 mm 1 mps 749 mmHg 89%
    02:00 -1°C° 0 mm 1 mps 748 mmHg 89%
    03:00 -1°C° 0 mm 1 mps 748 mmHg 89%
    04:00 -2°C° 0 mm 1 mps 748 mmHg 89%
    05:00 -2°C° 0 mm 1 mps 749 mmHg 89%
    06:00 -2°C° 0 mm 1 mps 749 mmHg 88%
    07:00 -3°C° 0 mm 0 mps 749 mmHg 88%
    08:00 -2°C° 0 mm 0 mps 749 mmHg 86%
    09:00 -2°C° 0 mm 0 mps 749 mmHg 85%
    10:00 0°C° 0 mm 1 mps 749 mmHg 83%
    11:00 0°C° 0 mm 1 mps 749 mmHg 82%
    12:00 0°C° 0 mm 1 mps 749 mmHg 82%
    13:00 0°C° 0 mm 1 mps 748 mmHg 81%
    14:00 0°C° 0 mm 1 mps 748 mmHg 83%
    15:00 -1°C° 0 mm 1 mps 748 mmHg 86%
    16:00 -1°C° 0 mm 1 mps 748 mmHg 88%
    17:00 -1°C° 0 mm 1 mps 748 mmHg 88%
    18:00 -2°C° 0 mm 0 mps 748 mmHg 88%
    19:00 -2°C° 0 mm 0 mps 748 mmHg 88%
    20:00 -3°C° 0 mm 0 mps 748 mmHg 89%
    21:00 -3°C° 0 mm 0 mps 748 mmHg 89%
    22:00 -3°C° 0 mm 0 mps 748 mmHg 89%
    23:00 -3°C° 0 mm 0 mps 748 mmHg 89%
    Show more